ARIANE 42P DEB, 47107

Orbit data source: Space-Track

ARIANE 42P DEB, 47107 is space debris in LEO originally from a launch on Mon, 10 Aug 1992 UTC launched from the French Guiana (FRGUI). Debris objects in space refer to the collection of defunct objects orbiting the Earth. Examples of debris include non-operational satellites, rocket bodies, and fragments generated from explosions, collisions, or faulty payload assembly.

Loading next visibility...
Identifier
47107, 1992-052N
Orbit
LEO
Country
Flag of FRFR
Related business
Manufacturer
ArianeGroup
Mission
Spacecraft
Bus & Motor
Unknown
Mass
Unknown
Launch date (UTC)
1992-08-10 (33 years ago)
Launch vehicle
Unknown
Launch site
French Guiana (FRGUI)
Object type
Payload
Rocket body
Debris
Shape & HBR
Unknown shape, 0.1 m
Radar Cross Section
Small (<0.1 m²)

Expand to show TLE details & history
Last TLE update: 1 day ago

TLE from 1 day ago
0 ARIANE 42P DEB
1 47107U 92052N   25353.59119816  .00001539  00000-0  65731-2 0  9997
2 47107  66.0644 296.4758 0071881  10.1327 350.1120 12.84094000283763
Epoch: 2025-12-19T14:11Z
TLE epoch observation values (Epoch: 2025-12-19T14:11:19.521Z)
Latitude
0.00003°
Longitude
-4.78568°
Altitude
1,272.426 km
Speed
7.245 km/s
True Right ascension
19h 45m 54s
True Declination
0° 00' 00"
Sunlit
Object was in daylight at epoch
Visualization orbit readout
Latitude
Unknown
Longitude
Unknown
Altitude
Unknown
Speed
Unknown
Apparent Right ascension
Unknown
Apparent Declination
Unknown
Sunlit
N/A
Visualization observer readout
Local Sidereal Time
00:40:36
Azimuth
Unknown
Elevation
Unknown
Doppler factor
Unknown
Orbital elements
Apogee altitude
1,378.972 km
Perigee altitude
1,268.25 km
Semi-major axis
7,701.748 km
Eccentricity
0.00719
Inclination
66.0644°
RAAN
296.4758°
Arg. of periapsis
10.1327°
True anomaly
349.96929°
Mean anomaly
350.112°
Eccentric anomaly
350.04077°
Mean motion
3.21114 °/min
Orbital period
112.11 mins
BSTAR
0.0065731
Loading maneuver chart data...
Computing Atmospheric mass density...
Loading historical data...
Loading historical data...
Loading historical data...
Loading historical data...
Loading historical data...
Loading historical data...
Loading historical data...

Documentation

Showing up to 5 results
|